WD9EKA Weather Reports


Display with metric or nautical units.
time (UTC)temp
F
wind
direction
speed
MPH
gust
MPH
rain 1hr
in
rain 24hr
in
rain mn
in
humidity
%
barometer
mb
20260902164711 92 249 2.0 4.0 0.00 0.00 0.00 63 1012.1
20260902164151 92 221 2.0 3.0 0.00 0.00 0.00 62 1012.1
20260902163633 92 236 3.0 4.0 0.00 0.00 0.00 64 1012.0
20260902163127 92 220 4.0 5.0 0.00 0.00 0.00 64 1012.0
20260902162607 91 231 5.0 6.0 0.00 0.00 0.00 63 1012.1
20260902162047 91 263 4.0 4.0 0.00 0.00 0.00 64 1012.2
20260902161527 91 235 3.0 4.0 0.00 0.00 0.00 65 1012.2
20260902161007 91 255 3.0 4.0 0.00 0.00 0.00 68 1012.1
20260902160447 91 243 3.0 4.0 0.00 0.00 0.00 66 1012.3
20260902155926 90 297 3.0 4.0 0.00 0.00 0.00 67 1012.3
20260902155407 90 244 4.0 5.0 0.00 0.00 0.00 68 1012.3
20260902154847 90 267 3.0 4.0 0.00 0.00 0.00 68 1012.2
20260902154333 90 266 4.0 4.0 0.00 0.00 0.00 69 1012.5
20260902153733 89 236 4.0 5.0 0.00 0.00 0.00 71 1012.3
20260902153133 89 209 2.0 3.0 0.00 0.00 0.00 70 1012.2
20260902152633 89 266 4.0 5.0 0.00 0.00 0.00 72 1012.1
20260902152033 89 230 3.0 4.0 0.00 0.00 0.00 72 1012.1
20260902151533 88 277 5.0 6.0 0.00 0.00 0.00 72 1012.3
20260902150933 87 208 3.0 4.0 0.00 0.00 0.00 73 1012.3
20260902150333 87 296 5.0 6.0 0.00 0.00 0.00 72 1012.4
20260902145733 87 260 3.0 5.0 0.00 0.00 0.00 74 1012.2
20260902145133 87 242 5.0 8.0 0.00 0.00 0.00 72 1012.3
20260902144533 87 224 1.0 2.0 0.00 0.00 0.00 74 1012.0
20260902143933 86 236 2.0 4.0 0.00 0.00 0.00 74 1012.3
20260902143333 86 232 2.0 4.0 0.00 0.00 0.00 75 1012.2
20260902142833 86 222 2.0 4.0 0.00 0.00 0.00 76 1012.3
20260902142233 85 236 2.0 3.0 0.00 0.00 0.00 77 1012.2
20260902141133 84 237 3.0 4.0 0.00 0.00 0.00 77 1012.2
20260902140533 84 201 0.0 1.0 0.00 0.00 0.00 78 1012.1
20260902135333 83 233 1.0 2.0 0.00 0.00 0.00 81 1012.3
20260902134733 83 209 2.0 3.0 0.00 0.00 0.00 80 1012.2
20260902134233 83 188 1.0 2.0 0.00 0.00 0.00 81 1012.4
20260902133633 82 214 3.0 4.0 0.00 0.00 0.00 82 1012.4
20260902133033 81 176 0.0 0.0 0.00 0.00 0.00 85 1012.4
20260902132433 80 218 0.0 0.0 0.00 0.00 0.00 89 1012.6
20260902131833 78 208 0.0 0.0 0.00 0.00 0.00 93 1012.6
20260902131233 77 214 2.0 2.0 0.00 0.00 0.00 95 1012.6
20260902130633 75 213 0.0 0.0 0.00 0.00 0.00 99 1012.8
20260902130033 75 192 0.0 0.0 0.00 0.00 0.00 99 1012.7
20260902125433 74 210 0.0 0.0 0.00 0.00 0.00 99 1012.5
20260902124833 74 237 0.0 0.0 0.00 0.00 0.00 99 1012.5
20260902123633 73 238 0.0 0.0 0.00 0.00 0.00 99 1012.6
20260902123033 73 237 0.0 0.0 0.00 0.00 0.00 99 1012.4
20260902122533 72 238 0.0 0.0 0.00 0.00 0.00 99 1012.6
20260902121933 70 238 0.0 0.0 0.00 0.00 0.00 99 1012.5
20260902121333 70 238 0.0 0.0 0.00 0.00 0.00 99 1012.4
20260902120733 70 238 0.0 0.0 0.00 0.00 0.00 99 1012.6
20260902120233 70 238 0.0 0.0 0.00 0.00 0.00 99 1012.4
20260902115633 69 238 0.0 0.0 0.00 0.00 0.00 99 1012.5
20260902115033 69 238 0.0 0.0 0.00 0.00 0.00 99 1012.3
20260902114433 69 238 0.0 0.0 0.00 0.00 0.00 99 1012.2
20260902113933 69 238 0.0 0.0 0.00 0.00 0.00 99 1012.2
20260902113333 69 238 0.0 0.0 0.00 0.00 0.00 99 1012.5
20260902112833 69 238 0.0 0.0 0.00 0.00 0.00 99 1012.1
20260902112233 69 238 0.0 0.0 0.00 0.00 0.00 99 1012.2
20260902111633 69 238 0.0 0.0 0.00 0.00 0.00 99 1012.4
20260902110533 69 238 0.0 0.0 0.00 0.00 0.00 99 1012.2
20260902105934 69 238 0.0 0.0 0.00 0.00 0.00 99 1012.0
20260902105333 69 238 0.0 0.0 0.00 0.00 0.00 99 1012.2
20260902104733 69 238 0.0 0.0 0.00 0.00 0.00 99 1012.0
20260902104133 68 238 0.0 0.0 0.00 0.00 0.00 99 1012.1
20260902103533 69 238 0.0 0.0 0.00 0.00 0.00 99 1012.0
20260902102933 69 238 0.0 0.0 0.00 0.00 0.00 99 1011.9
20260902102333 69 238 0.0 0.0 0.00 0.00 0.00 99 1011.9
20260902101733 69 238 0.0 0.0 0.00 0.00 0.00 99 1011.9
20260902101133 69 238 0.0 0.0 0.00 0.00 0.00 99 1011.8
20260902100533 69 238 0.0 0.0 0.00 0.00 0.00 99 1011.9
20260902095933 69 238 0.0 0.0 0.00 0.00 0.00 99 1011.6
20260902095433 69 238 0.0 0.0 0.00 0.00 0.00 99 1011.7
20260902094833 69 238 0.0 0.0 0.00 0.00 0.00 99 1011.7
20260902093733 69 238 0.0 0.0 0.00 0.00 0.00 99 1011.7
20260902093133 69 238 0.0 0.0 0.00 0.00 0.00 99 1011.7
20260902092533 69 238 0.0 0.0 0.00 0.00 0.00 99 1011.7
20260902091933 69 238 0.0 0.0 0.00 0.00 0.00 99 1011.7
20260902091333 69 238 0.0 0.0 0.00 0.00 0.00 99 1011.4
20260902090733 69 238 0.0 0.0 0.00 0.00 0.00 99 1011.4
20260902090133 69 238 0.0 0.0 0.00 0.00 0.00 99 1011.4
20260902085633 69 238 0.0 0.0 0.00 0.00 0.00 99 1011.5
20260902085033 69 238 0.0 0.0 0.00 0.00 0.00 99 1011.4
20260902084433 70 238 0.0 0.0 0.00 0.00 0.00 99 1011.5
20260902083933 70 238 0.0 0.0 0.00 0.00 0.00 99 1011.5
20260902083333 70 238 0.0 0.0 0.00 0.00 0.00 99 1011.3
20260902082733 70 238 0.0 0.0 0.00 0.00 0.00 99 1011.2
20260902082233 70 238 0.0 0.0 0.00 0.00 0.00 99 1011.2
20260902081633 70 238 0.0 0.0 0.00 0.00 0.00 99 1011.2
20260902081133 70 238 0.0 0.0 0.00 0.00 0.00 99 1011.4
20260902080533 70 238 0.0 0.0 0.00 0.00 0.00 99 1011.3
20260902080033 70 238 0.0 0.0 0.00 0.00 0.00 99 1011.3
20260902075433 70 238 0.0 0.0 0.00 0.00 0.00 99 1011.6
20260902074833 70 238 0.0 0.0 0.00 0.00 0.00 99 1011.4
20260902074327 70 238 0.0 0.0 0.00 0.00 0.00 99 1011.6
20260902073247 70 238 0.0 0.0 0.00 0.00 0.00 99 1011.4
20260902072733 70 238 0.0 0.0 0.00 0.00 0.00 99 1011.5
20260902072133 70 238 0.0 0.0 0.00 0.00 0.00 99 1011.3
20260902071533 70 238 0.0 0.0 0.00 0.00 0.00 99 1011.6
20260902070933 70 238 0.0 0.0 0.00 0.00 0.00 99 1011.7
20260902070333 71 238 0.0 0.0 0.00 0.00 0.00 99 1011.5
20260902065733 70 238 0.0 0.0 0.00 0.00 0.00 99 1011.3
20260902065133 71 238 0.0 0.0 0.00 0.00 0.00 99 1011.4
20260902064533 71 238 0.0 0.0 0.00 0.00 0.00 99 1011.5
20260902064016 71 238 0.0 0.0 0.00 0.00 0.00 99 1011.5
20260902063456 71 238 0.0 0.0 0.00 0.00 0.00 99 1011.3
20260902062935 71 238 0.0 0.0 0.00 0.00 0.00 99 1011.5
20260902062433 71 238 0.0 0.0 0.00 0.00 0.00 99 1011.5
20260902061928 71 238 0.0 0.0 0.00 0.00 0.00 99 1011.4
20260902061408 71 238 0.0 0.0 0.00 0.00 0.00 99 1011.6
20260902060848 71 238 0.0 0.0 0.00 0.00 0.00 99 1011.6
20260902060328 71 238 0.0 0.0 0.00 0.00 0.00 99 1011.4
20260902055808 72 238 0.0 0.0 0.00 0.00 0.00 99 1011.4
20260902055248 72 238 0.0 0.0 0.00 0.00 0.00 99 1011.4
20260902054728 72 238 0.0 0.0 0.00 0.00 0.00 99 1011.4
20260902054208 72 238 0.0 0.0 0.00 0.00 0.00 99 1011.5
20260902053648 72 238 0.0 0.0 0.00 0.00 0.00 99 1011.4
20260902053128 72 238 0.0 0.0 0.00 0.00 0.00 99 1011.3
20260902052608 73 238 0.0 0.0 0.00 0.00 0.00 99 1011.3
20260902052032 73 238 0.0 0.0 0.00 0.00 0.00 99 1011.3
20260902051512 73 238 0.0 0.0 0.00 0.00 0.00 99 1011.4
20260902050952 73 238 0.0 0.0 0.00 0.00 0.00 99 1011.3
20260902050432 73 238 0.0 0.0 0.00 0.00 0.00 99 1011.2
20260902045912 73 238 0.0 0.0 0.00 0.00 0.00 99 1011.1
20260902045352 73 238 0.0 0.0 0.00 0.00 0.00 99 1011.1
20260902044832 73 238 0.0 0.0 0.00 0.00 0.00 99 1011.3
20260902044312 73 238 0.0 0.0 0.00 0.00 0.00 99 1011.2
20260902043752 73 238 0.0 0.0 0.00 0.00 0.00 99 1011.1
20260902043232 74 238 0.0 0.0 0.00 0.00 0.00 99 1011.1
20260902042712 74 238 0.0 0.0 0.00 0.00 0.00 99 1011.2
20260902042152 74 238 0.0 0.0 0.00 0.00 0.00 99 1011.0
20260902041632 74 238 0.0 0.0 0.00 0.00 0.00 99 1011.1
20260902041112 74 238 0.0 0.0 0.00 0.00 0.00 99 1011.1
20260902040552 75 238 0.0 0.0 0.00 0.00 0.00 99 1011.4
20260902040032 75 238 0.0 0.0 0.00 0.00 0.00 99 1011.3
20260902035512 75 238 0.0 0.0 0.00 0.00 0.00 99 1011.3
20260902034434 75 238 0.0 0.0 0.00 0.00 0.00 99 1011.5
20260902033833 75 238 0.0 0.0 0.00 0.00 0.00 99 1011.3
20260902033234 75 238 0.0 0.0 0.00 0.00 0.00 99 1011.3
20260902032634 75 238 0.0 0.0 0.00 0.00 0.00 99 1011.4
20260902031600 76 238 0.0 0.0 0.00 0.00 0.00 99 1011.3
20260902031040 76 238 0.0 0.0 0.00 0.00 0.00 99 1011.3
20260902030533 76 238 0.0 0.0 0.00 0.00 0.00 99 1011.3
20260902025933 77 238 0.0 0.0 0.00 0.00 0.00 99 1011.2
20260902025334 77 238 0.0 0.0 0.00 0.00 0.00 99 1011.4
20260902024816 77 238 0.0 0.0 0.00 0.00 0.00 99 1011.2
20260902024256 77 238 0.0 0.0 0.00 0.00 0.00 99 1011.2
20260902023734 77 238 0.0 0.0 0.00 0.00 0.00 99 1011.1
20260902023216 77 238 0.0 0.0 0.00 0.00 0.00 99 1011.1
20260902022656 77 238 0.0 0.0 0.00 0.00 0.00 99 1011.2
20260902022134 77 237 0.0 0.0 0.00 0.00 0.00 99 1011.2
20260902021616 76 238 0.0 0.0 0.00 0.00 0.00 99 1011.0
20260902021056 76 238 0.0 0.0 0.00 0.00 0.00 99 1011.0
20260902020534 77 238 0.0 0.0 0.00 0.00 0.00 98 1010.8
20260902020016 77 237 0.0 0.0 0.00 0.00 0.00 98 1010.7
20260902015456 77 238 0.0 0.0 0.00 0.00 0.00 98 1010.6
20260902014934 77 238 0.0 0.0 0.00 0.00 0.00 98 1010.9
20260902014416 78 238 0.0 0.0 0.00 0.00 0.00 98 1010.8
20260902013333 77 238 0.0 0.0 0.00 0.00 0.00 96 1010.6
20260902012816 77 238 0.0 0.0 0.00 0.00 0.00 96 1010.4
20260902012257 77 238 0.0 0.0 0.00 0.00 0.00 96 1010.5
20260902011733 78 238 0.0 0.0 0.00 0.00 0.00 96 1010.6
20260902011216 78 238 0.0 0.0 0.00 0.00 0.00 95 1010.4
20260902010656 78 238 0.0 0.0 0.00 0.00 0.00 94 1010.5
20260902010134 78 238 0.0 0.0 0.00 0.00 0.00 94 1010.4
20260902005616 79 238 0.0 0.0 0.00 0.00 0.00 93 1010.3
20260902005056 79 238 0.0 0.0 0.00 0.00 0.00 92 1010.5
20260902004533 79 238 0.0 0.0 0.00 0.00 0.00 91 1010.2
20260902004016 80 238 0.0 0.0 0.00 0.00 0.00 91 1010.3
20260902003456 80 238 0.0 0.0 0.00 0.00 0.00 90 1010.4
20260902002933 81 238 0.0 0.0 0.00 0.00 0.00 89 1010.3
20260902002416 82 237 0.0 0.0 0.00 0.00 0.00 87 1010.3
20260902001856 82 238 0.0 0.0 0.00 0.00 0.00 85 1010.3
20260902001334 83 237 0.0 0.0 0.00 0.00 0.00 84 1010.4
20260902000816 84 237 0.0 0.0 0.00 0.00 0.00 83 1010.4
20260902000257 85 237 0.0 0.0 0.00 0.00 0.00 81 1010.3
20260901235734 87 237 0.0 0.0 0.00 0.00 0.00 79 1010.5
20260901235217 88 237 0.0 0.0 0.00 0.00 0.00 76 1010.3
20260901234656 90 237 0.0 0.0 0.00 0.00 0.00 74 1010.5
20260901234134 90 237 0.0 0.0 0.00 0.00 0.00 73 1010.5
20260901233617 91 237 0.0 0.0 0.00 0.00 0.00 71 1010.5
20260901233056 92 237 0.0 0.0 0.00 0.00 0.00 70 1010.5
20260901232534 93 237 0.0 0.0 0.00 0.00 0.00 67 1010.8
20260901231933 93 237 0.0 0.0 0.00 0.00 0.00 68 1010.5
20260901231334 93 237 0.0 0.0 0.00 0.00 0.00 66 1010.4
20260901230734 93 237 0.0 0.0 0.00 0.00 0.00 66 1010.4
20260901230134 94 237 0.0 0.0 0.00 0.00 0.00 66 1010.4
20260901225534 93 237 0.0 0.0 0.00 0.00 0.00 65 1010.4
20260901224934 93 237 0.0 0.0 0.00 0.00 0.00 65 1010.6
20260901224333 93 237 0.0 0.0 0.00 0.00 0.00 65 1010.6
20260901223734 94 237 0.0 0.0 0.00 0.00 0.00 65 1010.4
20260901223133 93 237 0.0 1.0 0.00 0.00 0.00 64 1010.2
20260901222533 94 236 0.0 1.0 0.00 0.00 0.00 64 1010.4
20260901221934 95 236 0.0 1.0 0.00 0.00 0.00 63 1010.6
20260901221334 96 236 0.0 1.0 0.00 0.00 0.00 63 1010.3
20260901220832 95 236 0.0 0.0 0.00 0.00 0.00 63 1010.1
20260901220312 97 236 0.0 1.0 0.00 0.00 0.00 60 1010.4
20260901215753 97 236 0.0 0.0 0.00 0.00 0.00 59 1010.4
20260901215233 98 236 0.0 0.0 0.00 0.00 0.00 58 1010.4
20260901214713 98 223 0.0 1.0 0.00 0.00 0.00 51 1010.5
20260901214153 97 245 0.0 1.0 0.00 0.00 0.00 53 1010.5
20260901213632 97 257 0.0 1.0 0.00 0.00 0.00 55 1010.4
20260901213113 98 243 2.0 2.0 0.00 0.00 0.00 50 1010.3
20260901212553 98 227 1.0 2.0 0.00 0.00 0.00 51 1010.3
20260901212032 97 192 0.0 1.0 0.00 0.00 0.00 52 1010.2
20260901211513 97 242 1.0 2.0 0.00 0.00 0.00 54 1010.3
20260901210432 98 264 3.0 3.0 0.00 0.00 0.00 50 1010.5
20260901205913 97 240 1.0 2.0 0.00 0.00 0.00 51 1010.3
20260901204833 97 165 0.0 1.0 0.00 0.00 0.00 52 1010.7
20260901204313 97 235 4.0 4.0 0.00 0.00 0.00 51 1010.5
20260901203753 97 260 2.0 2.0 0.00 0.00 0.00 54 1010.7
20260901203233 97 227 1.0 2.0 0.00 0.00 0.00 51 1010.8
20260901202712 96 224 2.0 4.0 0.00 0.00 0.00 54 1010.6
20260901202153 97 215 3.0 4.0 0.00 0.00 0.00 54 1010.8
20260901201633 97 194 0.0 1.0 0.00 0.00 0.00 54 1010.7
20260901201113 96 245 3.0 4.0 0.00 0.00 0.00 52 1010.6
20260901200553 96 269 4.0 4.0 0.00 0.00 0.00 51 1010.8
20260901200033 96 268 3.0 5.0 0.00 0.00 0.00 54 1010.7
20260901195514 96 236 0.0 1.0 0.00 0.00 0.00 56 1010.8
20260901194953 96 205 1.0 2.0 0.00 0.00 0.00 56 1010.9
20260901194434 96 241 3.0 4.0 0.00 0.00 0.00 54 1010.9
20260901193913 95 269 4.0 5.0 0.00 0.00 0.00 53 1011.1
20260901193353 95 239 4.0 5.0 0.00 0.00 0.00 56 1011.1
20260901192833 96 230 2.0 3.0 0.00 0.00 0.00 55 1011.3
20260901192313 95 247 1.0 2.0 0.00 0.00 0.00 58 1011.1
20260901191753 95 257 2.0 4.0 0.00 0.00 0.00 55 1011.0
20260901191233 95 267 3.0 3.0 0.00 0.00 0.00 56 1011.2
20260901190713 95 241 2.0 4.0 0.00 0.00 0.00 58 1011.4
20260901190152 95 210 1.0 2.0 0.00 0.00 0.00 56 1011.2
20260901185633 95 230 3.0 4.0 0.00 0.00 0.00 56 1011.5
20260901185113 95 259 5.0 6.0 0.00 0.00 0.00 55 1011.4
20260901184553 95 265 4.0 4.0 0.00 0.00 0.00 55 1011.5
20260901184032 95 241 0.0 1.0 0.00 0.00 0.00 56 1011.5
20260901183457 95 192 1.0 2.0 0.00 0.00 0.00 57 1011.6
20260901182934 95 252 3.0 3.0 0.00 0.00 0.00 58 1011.9
20260901182417 94 249 4.0 6.0 0.00 0.00 0.00 57 1011.5
20260901181841 94 214 2.0 3.0 0.00 0.00 0.00 58 1011.7
20260901181321 94 245 4.0 5.0 0.00 0.00 0.00 57 1011.8
20260901180801 95 252 3.0 3.0 0.00 0.00 0.00 57 1011.6
20260901180241 94 240 4.0 4.0 0.00 0.00 0.00 60 1011.8
20260901175721 94 270 4.0 6.0 0.00 0.00 0.00 59 1011.7
20260901175201 94 213 4.0 6.0 0.00 0.00 0.00 57 1011.9
20260901174641 93 250 4.0 5.0 0.00 0.00 0.00 58 1011.8
20260901174121 94 247 2.0 3.0 0.00 0.00 0.00 59 1011.9
20260901173601 93 245 3.0 3.0 0.00 0.00 0.00 61 1012.1
20260901173041 93 169 3.0 4.0 0.00 0.00 0.00 59 1012.2
20260901172521 93 241 2.0 3.0 0.00 0.00 0.00 61 1012.1
20260901172001 93 208 1.0 2.0 0.00 0.00 0.00 61 1012.1
20260901171441 93 240 2.0 3.0 0.00 0.00 0.00 60 1012.1
20260901170921 93 235 2.0 3.0 0.00 0.00 0.00 61 1012.2
20260901170401 93 222 1.0 2.0 0.00 0.00 0.00 63 1012.4
20260901165841 92 250 1.0 3.0 0.00 0.00 0.00 63 1012.2
20260901165321 91 266 3.0 5.0 0.00 0.00 0.00 62 1012.3
20260901164801 91 246 5.0 6.0 0.00 0.00 0.00 64 1012.5